Time,TemperatureF,DewpointF,PressureIn,WindDirection,WindDirectionDegrees,WindSpeedMPH,WindSpeedGustMPH,Humidity,HourlyPrecipIn,Conditions,Clouds,dailyrainin,SoftwareType,DateUTC
2013-04-24 00:01:00,72.0,62.0,30.12,ENE,77,1.0,2.0,71,0.00,,,0.00,,2013-04-24 04:01:00,
2013-04-24 00:03:00,71.0,62.0,30.11,East,82,2.0,5.0,72,0.00,,,0.00,,2013-04-24 04:03:00,
2013-04-24 00:12:00,71.0,62.0,30.11,East,82,2.0,5.0,72,0.00,,,0.00,,2013-04-24 04:12:00,
2013-04-24 00:23:00,71.0,63.0,30.12,East,79,2.0,4.0,75,0.00,,,0.00,,2013-04-24 04:23:00,
2013-04-24 00:33:00,71.0,63.0,30.12,East,86,1.0,3.0,76,0.00,,,0.00,,2013-04-24 04:33:00,
2013-04-24 00:43:00,71.0,63.0,30.12,East,86,1.0,3.0,76,0.00,,,0.00,,2013-04-24 04:43:00,
2013-04-24 00:53:00,70.0,62.0,30.12,East,89,1.0,3.0,77,0.00,,,0.00,,2013-04-24 04:53:00,
2013-04-24 01:02:00,70.0,63.0,30.12,ENE,68,0.0,2.0,78,0.00,,,0.00,,2013-04-24 05:02:00,
2013-04-24 01:13:00,70.0,63.0,30.12,ENE,68,0.0,2.0,78,0.00,,,0.00,,2013-04-24 05:13:00,
2013-04-24 01:22:00,69.0,62.0,30.12,ENE,75,1.0,2.0,79,0.00,,,0.00,,2013-04-24 05:22:00,
2013-04-24 01:32:00,69.0,63.0,30.12,East,91,0.0,1.0,80,0.00,,,0.00,,2013-04-24 05:32:00,
2013-04-24 01:42:00,69.0,63.0,30.12,East,91,0.0,1.0,80,0.00,,,0.00,,2013-04-24 05:42:00,
2013-04-24 01:52:00,69.0,63.0,30.11,East,94,1.0,4.0,80,0.00,,,0.00,,2013-04-24 05:52:00,
2013-04-24 02:02:00,68.0,62.0,30.11,ENE,72,1.0,3.0,81,0.00,,,0.00,,2013-04-24 06:02:00,
2013-04-24 02:12:00,68.0,62.0,30.11,ENE,72,1.0,3.0,81,0.00,,,0.00,,2013-04-24 06:12:00,
2013-04-24 02:22:00,68.0,62.0,30.11,East,84,1.0,3.0,81,0.00,,,0.00,,2013-04-24 06:22:00,
2013-04-24 02:33:00,68.0,62.0,30.11,East,82,0.0,2.0,81,0.00,,,0.00,,2013-04-24 06:33:00,
2013-04-24 02:42:00,68.0,62.0,30.11,East,82,0.0,2.0,81,0.00,,,0.00,,2013-04-24 06:42:00,
2013-04-24 02:52:00,68.0,63.0,30.10,East,79,0.0,1.0,83,0.00,,,0.00,,2013-04-24 06:52:00,
2013-04-24 03:02:00,67.0,62.0,30.10,ENE,75,1.0,2.0,84,0.00,,,0.00,,2013-04-24 07:02:00,
2013-04-24 03:11:00,67.0,62.0,30.10,ENE,75,1.0,2.0,84,0.00,,,0.00,,2013-04-24 07:11:00,
2013-04-24 03:22:00,67.0,62.0,30.10,East,80,0.0,2.0,84,0.00,,,0.00,,2013-04-24 07:22:00,
2013-04-24 03:32:00,67.0,62.0,30.09,ENE,77,0.0,3.0,85,0.00,,,0.00,,2013-04-24 07:32:00,
2013-04-24 03:42:00,67.0,62.0,30.09,ENE,77,0.0,3.0,85,0.00,,,0.00,,2013-04-24 07:42:00,
2013-04-24 03:52:00,66.0,61.0,30.09,ENE,78,0.0,2.0,85,0.00,,,0.00,,2013-04-24 07:52:00,
2013-04-24 04:02:00,66.0,61.0,30.10,East,84,0.0,1.0,85,0.00,,,0.00,,2013-04-24 08:02:00,
2013-04-24 04:12:00,66.0,61.0,30.10,East,84,0.0,1.0,85,0.00,,,0.00,,2013-04-24 08:12:00,
2013-04-24 04:21:00,66.0,62.0,30.10,East,79,0.0,1.0,87,0.00,,,0.00,,2013-04-24 08:21:00,
2013-04-24 04:33:00,65.0,61.0,30.09,ENE,78,0.0,0.0,88,0.00,,,0.00,,2013-04-24 08:33:00,
2013-04-24 04:42:00,65.0,61.0,30.09,ENE,78,0.0,0.0,88,0.00,,,0.00,,2013-04-24 08:42:00,
2013-04-24 04:52:00,65.0,62.0,30.09,East,86,0.0,0.0,89,0.00,,,0.00,,2013-04-24 08:52:00,
2013-04-24 05:02:00,65.0,62.0,30.10,ENE,76,0.0,0.0,89,0.00,,,0.00,,2013-04-24 09:02:00,
2013-04-24 05:11:00,65.0,62.0,30.10,ENE,76,0.0,0.0,89,0.00,,,0.00,,2013-04-24 09:11:00,
2013-04-24 05:21:00,65.0,62.0,30.10,ENE,69,0.0,0.0,89,0.00,,,0.00,,2013-04-24 09:21:00,
2013-04-24 05:33:00,64.0,61.0,30.10,East,83,0.0,0.0,90,0.00,,,0.00,,2013-04-24 09:33:00,
2013-04-24 05:42:00,64.0,61.0,30.10,East,83,0.0,0.0,90,0.00,,,0.00,,2013-04-24 09:42:00,
2013-04-24 05:53:00,64.0,61.0,30.10,ENE,78,0.0,0.0,90,0.00,,,0.00,,2013-04-24 09:53:00,
2013-04-24 06:02:00,64.0,61.0,30.11,East,81,0.0,0.0,90,0.00,,,0.00,,2013-04-24 10:02:00,
2013-04-24 06:12:00,64.0,61.0,30.11,East,81,0.0,0.0,90,0.00,,,0.00,,2013-04-24 10:12:00,
2013-04-24 06:23:00,64.0,61.0,30.10,East,89,0.0,0.0,91,0.00,,,0.00,,2013-04-24 10:23:00,
2013-04-24 06:33:00,64.0,61.0,30.11,ENE,75,0.0,0.0,91,0.00,,,0.00,,2013-04-24 10:33:00,
2013-04-24 06:42:00,64.0,61.0,30.11,ENE,75,0.0,0.0,91,0.00,,,0.00,,2013-04-24 10:42:00,
2013-04-24 06:53:00,64.0,61.0,30.11,ENE,75,0.0,0.0,91,0.00,,,0.00,,2013-04-24 10:53:00,
2013-04-24 07:02:00,64.0,61.0,30.11,East,79,0.0,0.0,91,0.00,,,0.00,,2013-04-24 11:02:00,
2013-04-24 07:11:00,64.0,61.0,30.11,East,79,0.0,0.0,91,0.00,,,0.00,,2013-04-24 11:11:00,
2013-04-24 07:22:00,64.0,62.0,30.12,East,79,0.0,0.0,92,0.00,,,0.00,,2013-04-24 11:22:00,
2013-04-24 07:32:00,64.0,62.0,30.12,ENE,77,0.0,0.0,92,0.00,,,0.00,,2013-04-24 11:32:00,
2013-04-24 07:42:00,64.0,62.0,30.12,ENE,77,0.0,0.0,92,0.00,,,0.00,,2013-04-24 11:42:00,
2013-04-24 07:53:00,64.0,62.0,30.13,East,79,0.0,0.0,92,0.00,,,0.00,,2013-04-24 11:53:00,
2013-04-24 08:02:00,65.0,63.0,30.13,East,83,0.0,0.0,92,0.00,,,0.00,,2013-04-24 12:02:00,
2013-04-24 08:11:00,65.0,63.0,30.13,East,83,0.0,0.0,92,0.00,,,0.00,,2013-04-24 12:11:00,
2013-04-24 08:22:00,65.0,63.0,30.14,East,82,0.0,0.0,92,0.00,,,0.00,,2013-04-24 12:22:00,
2013-04-24 08:32:00,67.0,64.0,30.14,ENE,73,0.0,0.0,91,0.00,,,0.00,,2013-04-24 12:32:00,
2013-04-24 08:42:00,67.0,64.0,30.14,ENE,73,0.0,0.0,91,0.00,,,0.00,,2013-04-24 12:42:00,
2013-04-24 08:52:00,68.0,64.0,30.14,East,91,0.0,1.0,88,0.00,,,0.00,,2013-04-24 12:52:00,
2013-04-24 09:01:00,69.0,64.0,30.15,ENE,77,2.0,2.0,83,0.00,,,0.00,,2013-04-24 13:01:00,
2013-04-24 09:12:00,69.0,64.0,30.15,ENE,77,2.0,2.0,83,0.00,,,0.00,,2013-04-24 13:12:00,
2013-04-24 09:22:00,71.0,64.0,30.15,East,80,1.0,3.0,78,0.00,,,0.00,,2013-04-24 13:22:00,
2013-04-24 09:32:00,72.0,64.0,30.15,ENE,75,1.0,2.0,76,0.00,,,0.00,,2013-04-24 13:32:00,
2013-04-24 09:41:00,72.0,64.0,30.15,ENE,75,1.0,2.0,76,0.00,,,0.00,,2013-04-24 13:41:00,
2013-04-24 09:52:00,73.0,64.0,30.15,ESE,118,0.0,7.0,74,0.00,,,0.00,,2013-04-24 13:52:00,
2013-04-24 10:01:00,74.0,64.0,30.16,NE,53,2.0,6.0,70,0.00,,,0.00,,2013-04-24 14:01:00,
2013-04-24 10:11:00,74.0,64.0,30.16,NE,53,2.0,6.0,70,0.00,,,0.00,,2013-04-24 14:11:00,
2013-04-24 10:22:00,75.0,63.0,30.16,East,82,2.0,5.0,67,0.00,,,0.00,,2013-04-24 14:22:00,
2013-04-24 10:32:00,75.0,63.0,30.16,SW,224,1.0,5.0,67,0.00,,,0.00,,2013-04-24 14:32:00,
2013-04-24 10:42:00,75.0,63.0,30.16,SW,224,1.0,5.0,67,0.00,,,0.00,,2013-04-24 14:42:00,
2013-04-24 10:52:00,76.0,63.0,30.16,NE,48,2.0,5.0,65,0.00,,,0.00,,2013-04-24 14:52:00,
2013-04-24 11:01:00,76.0,63.0,30.16,ENE,71,2.0,6.0,65,0.00,,,0.00,,2013-04-24 15:01:00,
2013-04-24 11:11:00,76.0,63.0,30.16,ENE,71,2.0,6.0,65,0.00,,,0.00,,2013-04-24 15:11:00,
2013-04-24 11:22:00,78.0,64.0,30.16,South,169,1.0,5.0,62,0.00,,,0.00,,2013-04-24 15:22:00,
2013-04-24 11:33:00,78.0,62.0,30.16,NNE,16,2.0,3.0,59,0.00,,,0.00,,2013-04-24 15:33:00,
2013-04-24 11:43:00,78.0,62.0,30.16,NNE,16,2.0,3.0,59,0.00,,,0.00,,2013-04-24 15:43:00,
2013-04-24 11:53:00,79.0,61.0,30.16,East,101,1.0,3.0,55,0.00,,,0.00,,2013-04-24 15:53:00,
2013-04-24 12:03:00,81.0,63.0,30.15,ENE,61,1.0,4.0,55,0.00,,,0.00,,2013-04-24 16:03:00,
2013-04-24 12:12:00,81.0,63.0,30.15,ENE,61,1.0,4.0,55,0.00,,,0.00,,2013-04-24 16:12:00,
2013-04-24 12:23:00,81.0,61.0,30.14,SE,134,2.0,4.0,51,0.00,,,0.00,,2013-04-24 16:23:00,
2013-04-24 12:32:00,82.0,61.0,30.14,ENE,65,2.0,6.0,49,0.00,,,0.00,,2013-04-24 16:32:00,
2013-04-24 12:42:00,82.0,61.0,30.14,ENE,65,2.0,6.0,49,0.00,,,0.00,,2013-04-24 16:42:00,
2013-04-24 12:53:00,83.0,60.0,30.14,North,352,2.0,4.0,46,0.00,,,0.00,,2013-04-24 16:53:00,
2013-04-24 13:02:00,83.0,60.0,30.14,ENE,59,1.0,5.0,46,0.00,,,0.00,,2013-04-24 17:02:00,
2013-04-24 13:12:00,83.0,60.0,30.14,ENE,59,1.0,5.0,46,0.00,,,0.00,,2013-04-24 17:12:00,
2013-04-24 13:22:00,85.0,60.0,30.13,NW,325,0.0,4.0,43,0.00,,,0.00,,2013-04-24 17:22:00,
2013-04-24 13:32:00,85.0,60.0,30.13,ENE,58,1.0,5.0,43,0.00,,,0.00,,2013-04-24 17:32:00,
2013-04-24 13:42:00,85.0,60.0,30.13,ENE,58,1.0,5.0,43,0.00,,,0.00,,2013-04-24 17:42:00,
2013-04-24 13:52:00,85.0,61.0,30.13,ENE,71,1.0,4.0,45,0.00,,,0.00,,2013-04-24 17:52:00,
2013-04-24 14:02:00,86.0,60.0,30.12,WSW,246,1.0,5.0,41,0.00,,,0.00,,2013-04-24 18:02:00,
2013-04-24 14:12:00,86.0,60.0,30.12,WSW,246,1.0,5.0,41,0.00,,,0.00,,2013-04-24 18:12:00,
2013-04-24 14:22:00,87.0,62.0,30.12,WSW,241,2.0,6.0,43,0.00,,,0.00,,2013-04-24 18:22:00,
2013-04-24 14:33:00,85.0,62.0,30.12,West,269,1.0,7.0,47,0.00,,,0.00,,2013-04-24 18:33:00,
2013-04-24 14:42:00,85.0,62.0,30.12,West,269,1.0,7.0,47,0.00,,,0.00,,2013-04-24 18:42:00,
2013-04-24 14:52:00,86.0,63.0,30.12,WSW,253,3.0,7.0,46,0.00,,,0.00,,2013-04-24 18:52:00,
2013-04-24 15:02:00,86.0,63.0,30.12,WSW,258,1.0,5.0,47,0.00,,,0.00,,2013-04-24 19:02:00,
2013-04-24 15:11:00,86.0,63.0,30.12,WSW,258,1.0,5.0,47,0.00,,,0.00,,2013-04-24 19:11:00,
2013-04-24 15:22:00,84.0,66.0,30.11,West,267,1.0,5.0,54,0.00,,,0.00,,2013-04-24 19:22:00,
2013-04-24 15:32:00,83.0,65.0,30.11,West,271,2.0,9.0,55,0.00,,,0.00,,2013-04-24 19:32:00,
2013-04-24 15:42:00,83.0,65.0,30.11,West,271,2.0,9.0,55,0.00,,,0.00,,2013-04-24 19:42:00,
2013-04-24 15:52:00,83.0,64.0,30.11,WNW,285,2.0,8.0,52,0.00,,,0.00,,2013-04-24 19:52:00,
2013-04-24 16:02:00,83.0,64.0,30.11,NW,308,3.0,5.0,53,0.00,,,0.00,,2013-04-24 20:02:00,
2013-04-24 16:11:00,83.0,64.0,30.11,NW,308,3.0,5.0,53,0.00,,,0.00,,2013-04-24 20:11:00,
2013-04-24 16:22:00,83.0,66.0,30.10,SSW,207,2.0,6.0,56,0.00,,,0.00,,2013-04-24 20:22:00,
2013-04-24 16:32:00,83.0,66.0,30.10,West,263,1.0,5.0,56,0.00,,,0.00,,2013-04-24 20:32:00,
2013-04-24 16:42:00,83.0,66.0,30.10,West,263,1.0,5.0,56,0.00,,,0.00,,2013-04-24 20:42:00,
2013-04-24 16:52:00,83.0,67.0,30.10,WSW,242,2.0,7.0,58,0.00,,,0.00,,2013-04-24 20:52:00,
2013-04-24 17:02:00,82.0,66.0,30.10,West,277,1.0,4.0,59,0.00,,,0.00,,2013-04-24 21:02:00,
2013-04-24 17:11:00,82.0,66.0,30.10,West,277,1.0,4.0,59,0.00,,,0.00,,2013-04-24 21:11:00,
2013-04-24 17:22:00,83.0,66.0,30.09,West,278,1.0,4.0,57,0.00,,,0.00,,2013-04-24 21:22:00,
2013-04-24 17:33:00,82.0,66.0,30.10,NW,311,1.0,3.0,58,0.00,,,0.00,,2013-04-24 21:33:00,
2013-04-24 17:42:00,82.0,66.0,30.10,NW,311,1.0,3.0,58,0.00,,,0.00,,2013-04-24 21:42:00,
2013-04-24 17:53:00,81.0,65.0,30.10,West,267,1.0,2.0,59,0.00,,,0.00,,2013-04-24 21:53:00,
2013-04-24 18:03:00,81.0,65.0,30.10,WNW,300,2.0,4.0,59,0.00,,,0.00,,2013-04-24 22:03:00,
2013-04-24 18:12:00,81.0,65.0,30.10,WNW,300,2.0,4.0,59,0.00,,,0.00,,2013-04-24 22:12:00,
2013-04-24 18:22:00,80.0,66.0,30.10,NW,304,1.0,3.0,62,0.00,,,0.00,,2013-04-24 22:22:00,
2013-04-24 18:33:00,78.0,66.0,30.11,WNW,291,1.0,3.0,66,0.00,,,0.00,,2013-04-24 22:33:00,
2013-04-24 18:42:00,78.0,66.0,30.11,WNW,291,1.0,3.0,66,0.00,,,0.00,,2013-04-24 22:42:00,
2013-04-24 18:52:00,77.0,66.0,30.10,NW,306,2.0,3.0,69,0.00,,,0.00,,2013-04-24 22:52:00,
2013-04-24 19:02:00,76.0,65.0,30.10,NW,309,1.0,5.0,70,0.00,,,0.00,,2013-04-24 23:02:00,
2013-04-24 19:12:00,76.0,65.0,30.10,NW,309,1.0,5.0,70,0.00,,,0.00,,2013-04-24 23:12:00,
2013-04-24 19:22:00,76.0,66.0,30.11,NNE,16,1.0,3.0,71,0.00,,,0.00,,2013-04-24 23:22:00,
2013-04-24 19:32:00,76.0,66.0,30.11,North,354,0.0,2.0,72,0.00,,,0.00,,2013-04-24 23:32:00,
2013-04-24 19:42:00,76.0,66.0,30.11,North,354,0.0,2.0,72,0.00,,,0.00,,2013-04-24 23:42:00,
2013-04-24 19:52:00,75.0,66.0,30.11,North,4,0.0,1.0,73,0.00,,,0.00,,2013-04-24 23:52:00,
2013-04-24 20:02:00,75.0,66.0,30.11,NNW,345,1.0,2.0,74,0.00,,,0.00,,2013-04-25 00:02:00,
2013-04-24 20:12:00,75.0,66.0,30.11,NNW,345,1.0,2.0,74,0.00,,,0.00,,2013-04-25 00:12:00,
2013-04-24 20:22:00,74.0,66.0,30.12,NNW,347,0.0,3.0,75,0.00,,,0.00,,2013-04-25 00:22:00,
2013-04-24 20:32:00,74.0,66.0,30.12,NNW,343,0.0,2.0,77,0.00,,,0.00,,2013-04-25 00:32:00,
2013-04-24 20:42:00,74.0,66.0,30.12,NNW,343,0.0,2.0,77,0.00,,,0.00,,2013-04-25 00:42:00,
2013-04-24 20:52:00,73.0,66.0,30.12,NNW,346,0.0,1.0,79,0.00,,,0.00,,2013-04-25 00:52:00,
2013-04-24 21:02:00,73.0,67.0,30.13,North,11,0.0,2.0,81,0.00,,,0.00,,2013-04-25 01:02:00,
2013-04-24 21:11:00,73.0,67.0,30.13,North,11,0.0,2.0,81,0.00,,,0.00,,2013-04-25 01:11:00,
2013-04-24 21:23:00,73.0,67.0,30.14,North,357,0.0,1.0,82,0.00,,,0.00,,2013-04-25 01:23:00,
2013-04-24 21:32:00,72.0,67.0,30.14,NNW,347,0.0,2.0,83,0.00,,,0.00,,2013-04-25 01:32:00,
2013-04-24 21:42:00,72.0,67.0,30.14,NNW,347,0.0,2.0,83,0.00,,,0.00,,2013-04-25 01:42:00,
2013-04-24 21:53:00,72.0,67.0,30.14,North,352,0.0,2.0,83,0.00,,,0.00,,2013-04-25 01:53:00,
2013-04-24 22:02:00,72.0,67.0,30.14,North,351,0.0,1.0,84,0.00,,,0.00,,2013-04-25 02:02:00,
2013-04-24 22:11:00,72.0,67.0,30.14,North,351,0.0,1.0,84,0.00,,,0.00,,2013-04-25 02:11:00,
2013-04-24 22:22:00,71.0,66.0,30.14,North,352,0.0,0.0,85,0.00,,,0.00,,2013-04-25 02:22:00,
2013-04-24 22:32:00,71.0,67.0,30.14,North,352,0.0,0.0,86,0.00,,,0.00,,2013-04-25 02:32:00,
2013-04-24 22:42:00,71.0,67.0,30.14,North,352,0.0,0.0,86,0.00,,,0.00,,2013-04-25 02:42:00,
2013-04-24 22:52:00,71.0,67.0,30.14,North,352,0.0,0.0,86,0.00,,,0.00,,2013-04-25 02:52:00,
2013-04-24 23:02:00,70.0,66.0,30.15,North,352,0.0,1.0,88,0.00,,,0.00,,2013-04-25 03:02:00,
2013-04-24 23:11:00,70.0,66.0,30.15,North,352,0.0,1.0,88,0.00,,,0.00,,2013-04-25 03:11:00,
2013-04-24 23:22:00,70.0,66.0,30.15,North,351,0.0,1.0,88,0.00,,,0.00,,2013-04-25 03:22:00,
2013-04-24 23:33:00,70.0,66.0,30.15,NNE,23,0.0,1.0,88,0.00,,,0.00,,2013-04-25 03:33:00,
2013-04-24 23:43:00,70.0,66.0,30.15,NNE,23,0.0,1.0,88,0.00,,,0.00,,2013-04-25 03:43:00,
2013-04-24 23:52:00,70.0,66.0,30.14,NNW,338,0.0,0.0,88,0.00,,,0.00,,2013-04-25 03:52:00,